Weather History for KCDR - March, 2013

Change the Weather History Date:

Monday, March 4, 2013

  Actual Average Record
Temperature  
Mean Temperature 28 °F 32 °F  
Max Temperature 36 °F 47 °F 75 °F (2009)
Min Temperature 20 °F 17 °F -19 °F (1989)
Degree Days  
Heating Degree Days 37 33  
Month to date heating degree days 98 133  
Since 1 July heating degree days 4994 5385  
Cooling Degree Days 0 0  
Month to date cooling degree days 0 0  
Year to date cooling degree days 0 0  
Moisture  
Dew Point 14 °F    
Average Humidity 55    
Maximum Humidity 78    
Minimum Humidity 32    
Precipitation  
Precipitation 0.00 in 0.03 in 0.97 in (1935)
Month to date precipitation 0.00 0.13  
Year to date precipitation 0.85 1.10  
Sea Level Pressure  
Sea Level Pressure 30.04 in    
Wind  
Wind Speed 25 mph (NW)    
Max Wind Speed 36 mph    
Max Gust Speed 54 mph    
Visibility 9 miles    
Events      
T = Trace of Precipitation, MM = Missing Value Source: NWS Daily Summary

Daily Weather History Graph

Daily Weather History Graph

Search for Another Location

Airport or City:

Trip Planner

Search our weather history database for the weather conditions in past years. The results will help you decide how hot, cold, wet, or windy it might be!

Date:

Astronomy

Mar. 04, 2013 Rise Set
Actual Time 6:22 AM MST 5:45 PM MST
Civil Twilight 5:54 AM MST 6:14 PM MST
Nautical Twilight 5:21 AM MST 6:47 PM MST
Astronomical Twilight 4:48 AM MST 7:19 PM MST
Moon 12:40 AM MST (3/4) 10:23 AM MST (3/4)
Length of Visible Light 12h 19m
Length of Day
11h 23m
Waning Gibbous, 51% of the Moon is Illuminated
Mar 4
Waning Gibbous
Mar 4
Last Quarter
Mar 11
New
Mar 19
First Quarter
Mar 27
Full

Hourly Weather History & Observations

Time (MST) Temp. Windchill Dew Point Humidity Pressure Visibility Wind Dir Wind Speed Gust Speed Precip Events Conditions
12:53 AM 35.1 °F 24.5 °F 25.0 °F 67% 29.75 in 10.0 mi NW 18.4 mph 25.3 mph N/A   Overcast
1:06 AM 35.6 °F 24.8 °F 24.8 °F 65% 29.74 in 10.0 mi WNW 19.6 mph 24.2 mph N/A   Overcast
1:53 AM 32.0 °F 23.6 °F 24.1 °F 73% 29.78 in 10.0 mi West 10.4 mph - N/A   Overcast
2:53 AM 30.9 °F 21.2 °F 24.1 °F 76% 29.79 in 10.0 mi NW 12.7 mph - N/A   Overcast
3:53 AM 32.0 °F 21.6 °F 25.0 °F 75% 29.81 in 10.0 mi WNW 15.0 mph - N/A   Overcast
4:53 AM 33.1 °F 21.5 °F 23.0 °F 66% 29.82 in 10.0 mi WNW 19.6 mph - N/A   Overcast
5:53 AM 30.0 °F 18.7 °F 21.9 °F 72% 29.86 in 10.0 mi WNW 16.1 mph - N/A   Overcast
6:53 AM 30.0 °F 17.2 °F 18.0 °F 61% 29.91 in 10.0 mi WNW 20.7 mph 25.3 mph N/A   Clear
7:53 AM 30.9 °F 17.8 °F 12.0 °F 46% 29.96 in 10.0 mi WNW 23.0 mph 33.4 mph N/A   Partly Cloudy
8:53 AM 33.1 °F 20.3 °F 12.0 °F 42% 29.97 in 10.0 mi NW 24.2 mph 32.2 mph N/A   Mostly Cloudy
9:53 AM 33.1 °F 20.9 °F 10.0 °F 38% 29.99 in 10.0 mi NW 21.9 mph 35.7 mph N/A   Scattered Clouds
10:53 AM 34.0 °F 20.1 °F 10.0 °F 37% 29.99 in 6.0 mi NW 31.1 mph 41.4 mph N/A   Haze
11:53 AM 35.1 °F 20.8 °F 9.0 °F 34% 29.98 in 5.0 mi WNW 35.7 mph 46.0 mph N/A   Haze
12:53 PM 32.0 °F 16.5 °F 6.1 °F 34% 30.02 in 3.0 mi NW 35.7 mph 51.8 mph N/A   Haze
1:53 PM 33.1 °F 18.0 °F 9.0 °F 37% 30.06 in 3.0 mi NW 35.7 mph 47.2 mph N/A   Haze
2:53 PM 30.9 °F 15.3 °F 5.0 °F 33% 30.12 in 5.0 mi NW 34.5 mph 50.6 mph N/A   Haze
3:53 PM 28.9 °F 14.0 °F 7.0 °F 40% 30.17 in 7.0 mi NW 27.6 mph 49.5 mph N/A   Partly Cloudy
4:53 PM 26.1 °F 8.4 °F 8.1 °F 47% 30.22 in 10.0 mi NW 35.7 mph 47.2 mph N/A   Clear
5:53 PM 24.1 °F 6.6 °F 10.0 °F 55% 30.26 in 10.0 mi NW 31.1 mph 42.6 mph N/A   Clear
6:53 PM 24.1 °F 7.7 °F 9.0 °F 53% 30.30 in 10.0 mi WNW 26.5 mph 38.0 mph N/A   Mostly Cloudy
7:53 PM 23.0 °F 6.6 °F 9.0 °F 55% 30.32 in 10.0 mi WNW 25.3 mph 36.8 mph N/A   Mostly Cloudy
8:53 PM 21.9 °F 3.7 °F 10.0 °F 60% 30.32 in 10.0 mi NW 31.1 mph 46.0 mph N/A   Mostly Cloudy
9:53 PM 21.9 °F 4.8 °F 10.0 °F 60% 30.35 in 10.0 mi WNW 26.5 mph 33.4 mph N/A   Clear
10:53 PM 19.9 °F 2.2 °F 8.1 °F 60% 30.36 in 10.0 mi WNW 26.5 mph 38.0 mph N/A   Clear